Notices

What's New in latest Release from April 7th, 2021:

- Updated Glossary, including Speed of Maximum Gust, and Total Hourly Precipitation

- Updated national and regional climate services offices contacts and prices information

- Addition of station inventory lists for 1981-2010, 1971-2000, and 1961-1990 Normals.

If you haven't already, please take our survey and provide feedback about our website: https://eccc.sondage-survey.ca/f/LanguageSelection.aspx?s=442ca660-fcf1-47c0-95a9-59707d6fd709

Hourly Data Report for July 01, 2018

TORONTO CITY
ONTARIO
Current Station Operator: ECCC - MSC

43°40'00.000" N
79°24'00.000" W
112.50 m
6158355
71508
XTO

Download Data

Hourly Data (July 2018)
Hourly Data Report for July 1, 2018
TIME
LST
Temp Definition
°C
Dew Point Definition
°C
Rel Hum Definition
%
Precip. Amount Definition
mm

Wind Dir Definition
10's deg

Wind Spd Definition
km/h
Visibility Definition
km
Stn Press Definition
kPa
Hmdx Definition


Wind Chill Definition


Weather Definition


00:00 26.6 20.1 68 0.0 LegendMM LegendMM   100.11 34   LegendNANA
01:00 25.2 20.3 74 0.0 LegendMM LegendMM   100.24 33   LegendNANA
02:00 25.1 20.8 77 0.0 LegendMM LegendMM   100.27 33   LegendNANA
03:00 24.2 20.2 78 0.0 LegendMM LegendMM   100.22 32   LegendNANA
04:00 24.1 20.0 78 0.0 LegendMM LegendMM   100.21 32   LegendNANA
05:00 23.0 19.8 82 0.0 LegendMM LegendMM   100.24 30   LegendNANA
06:00 23.4 19.9 81 0.0 LegendMM LegendMM   100.25 31   LegendNANA
07:00 24.5 20.0 76 0.0 LegendMM LegendMM   100.28 32   LegendNANA
08:00 26.0 19.9 69 0.0 LegendMM LegendMM   100.29 33   LegendNANA
09:00 27.3 20.4 66 0.0 LegendMM LegendMM   100.28 35   LegendNANA
10:00 27.6 19.9 63 0.0 LegendMM LegendMM   100.29 35   LegendNANA
11:00 29.3 20.6 59 0.0 LegendMM LegendMM   100.23 37   LegendNANA
12:00 30.4 20.8 57 0.0 LegendMM LegendMM   100.20 39   LegendNANA
13:00 31.7 21.5 55 0.0 LegendMM LegendMM   100.16 41   LegendNANA
14:00 32.5 20.8 50 0.0 LegendMM LegendMM   100.13 41   LegendNANA
15:00 31.6 18.5 46 0.0 LegendMM LegendMM   100.10 38   LegendNANA
16:00 31.4 17.1 42 0.0 LegendMM LegendMM   100.05 37   LegendNANA
17:00 31.4 15.1 37 0.0 LegendMM LegendMM   100.00 35   LegendNANA
18:00 30.9 17.0 43 0.0 LegendMM LegendMM   99.98 36   LegendNANA
19:00 29.6 17.7 49 0.0 LegendMM LegendMM   99.99 35   LegendNANA
20:00 27.8 17.8 54 0.0 LegendMM LegendMM   99.98 34   LegendNANA
21:00 27.8 18.6 58 0.0 LegendMM LegendMM   100.02 34   LegendNANA
22:00 27.4 19.0 60 0.0 LegendMM LegendMM   100.06 34   LegendNANA
23:00 26.7 18.7 61 0.0 LegendMM LegendMM   100.06 33   LegendNANA

Notes on Data Quality.

Legend

  • E = Estimated
  • M = Missing
  • NA = Not Available*
  • [empty] = Indicates an unobserved value
Date modified: